Regional Weather Roundup
Issued by NWS

Home | Current Version | Previous Version | Text Only | Print | Product List | Glossary On
Versions: 1 2 3 4 5 6 7 8 9 10 11 12 13 14 15 16 17 18 19 20 21 22 23 24 25 26 27
000
ASUS44 KJAN 240210
RWRMS

MISSISSIPPI HOURLY WEATHER ROUNDUP
NATIONAL WEATHER SERVICE JACKSON MS
900 PM CDT THU MAR 23 2017

NOTE: "FAIR: INDICATES FEW OR NO CLOUDS BELOW 12,000 FEET WITH NO
SIGNIFICANT WEATHER AND/OR OBSTRUCTIONS TO VISIBILITY.

MSZ001>002-007>008-010>013-018>021-025>028-034>036-240300-
NORTHWEST MISSISSIPPI

CITY           SKY/WX    TMP DP  RH WIND       PRES   REMARKS
BATESVILLE     FAIR      72  51  46 SE7       30.13
CLEVELAND      FAIR      75  55  48 SE8       30.09R
GREENWOOD      CLEAR     75  55  49 SE10      30.12R
GREENVILLE     CLEAR     74  50  42 SE8       30.08R
OXFORD         FAIR      68  50  52 SE9       30.16S
WINONA         FAIR      72  54  52 SE5       30.14R
$$

MSZ003>006-009-014>017-022>024-029>033-037>039-240300-
NORTHEAST MISSISSIPPI

CITY           SKY/WX    TMP DP  RH WIND       PRES   REMARKS
COLUMBUS AFB   CLEAR     65  54  68 SE7       30.18R
GOLDN TRIANGLE CLEAR     72  52  49 SE9       30.15R
STARKVILLE     FAIR      70  54  56 SE6       30.19R
TUPELO         CLEAR     72  50  45 SE7       30.17R
$$

MSZ040-058-240300-
CENTRAL MISSISSIPPI

CITY           SKY/WX    TMP DP  RH WIND       PRES   REMARKS
JACKSON INTL   CLEAR     70  56  61 SE8       30.14R
JACKSON HAWKNS CLEAR     73  54  51 SE8       30.15R
MADISON        FAIR      72  54  53 CALM      30.14
MERIDIAN KEY   CLOUDY    72  57  59 S3        30.19R
MERIDIAN NAS   PTCLDY    72  55  55 E8        30.20R
RAYMOND        FAIR      70  55  60 CALM      30.14R
$$

MSZ059>079-240300-
SOUTH MISSISSIPPI

CITY           SKY/WX    TMP DP  RH WIND       PRES   REMARKS
BROOKHAVEN     FAIR      72  57  60 SE5       30.18R
HATTIESBURG    PTCLDY    71  62  73 SE12      30.21R
MCCOMB         CLEAR     70  59  68 SE8       30.17R
NATCHEZ        CLEAR     73  55  53 SE12      30.13R
PINE BELT      MOCLDY    72  61  68 S13       30.22R
$$

MSZ080>082-240300-
COASTAL MISSISSIPPI

CITY           SKY/WX    TMP DP  RH WIND       PRES   REMARKS
BILOXI         CLEAR     69  65  86 SE13G22   30.22R
PASCAGOULA     MOCLDY    68  62  81 SE8       30.23R
GULFPORT       CLOUDY    70  65  84 SE13      30.21S
$$

LAZ007>009-015>016-023>026-240300-
NORTHEAST LOUISIANA

CITY           SKY/WX    TMP DP  RH WIND       PRES   REMARKS
BASTROP        FAIR      67  51  55 CALM      30.09R
TALLULAH/VBURG CLEAR     73  53  49 S10       30.11R
$$




USA.gov is the U.S. government's official web portal to all federal, state and local government web resources and services.